Location: Scenic Heights
(38.0166°N, 120.2566°W)
Time: 23:37:01
(UTC+00:00)

Cosmos 773 Rocket - Pass Details

Date: 03 August 2024
Orbit: 742 x 775 km, 74.1° (Epoch: 10 September)

Event Time Altitude Azimuth Distance (km) Brightness Sun altitude
Exits shadow 12:31:34 - 205° (SSW) 2,982 6.6 -7.0°
Reaches altitude 10° 12:33:27 10° 208° (SSW) 2,256 5.9 -6.7°
Maximum altitude 12:38:31 65° 290° (WNW) 827 4.0 -5.8°
Drops below altitude 10° 12:43:40 10° 12° (NNE) 2,291 7.1 -4.9°
Sets 12:46:05 0° 16° (NNE) 3,226 7.9 -4.5°
